Regional Weather Roundup
Issued by NWS

Home | Current Version | Previous Version | Text Only | Print | Product List | Glossary Off
Versions: 1 2 3 4 5 6 7 8 9 10 11 12 13 14 15 16 17 18 19 20 21 22 23 24 25 26 27 28 29 30 31 32 33 34 35 36 37 38 39 40 41 42 43 44 45 46 47 48 49 50

889
ASUS43 KLSX 312107
RWRMO

WEATHER SUMMARY FOR MISSOURI
NATIONAL WEATHER SERVICE SPRINGFIELD MO
400 PM CDT TUE MAY 31 2016

NOTE: "FAIR" INDICATES FEW OR NO CLOUDS BELOW 12,000 FEET WITH NO
       SIGNIFICANT WEATHER AND/OR OBSTRUCTIONS TO VISIBILITY.
       CURRENT SKY AND/OR WEATHER CONDITIONS ARE NOT AVAILABLE FOR
       CHILLICOTHE AND FARMINGTON.

MOZ001>031-035>038-043-044-053-054-312200-
...NORTHERN AND WESTERN MISSOURI...

CITY           SKY/WX    TMP DP  RH WIND       PRES   REMARKS
KANSAS CTY INT CLOUDY    76  63  64 CALM      29.90F
KANSAS C DTWN  CLOUDY    78  63  59 VRB3      29.88F
LEE`S SUMMIT   CLOUDY    78  63  59 CALM      29.90F
ST JOSEPH      CLOUDY    77  62  59 SW7       29.90S
CHILLICOTHE      N/A     80  68  66 S7        29.90F
KIRKSVILLE     CLOUDY    79  64  60 S12       29.91F

$$
MOZ066>068-077>081-088>096-101>105-312200-
...SOUTHWEST MISSOURI...

CITY           SKY/WX    TMP DP  RH WIND       PRES   REMARKS
SPRINGFIELD    PTSUNNY   81  62  52 S12       29.89F
JOPLIN         PTSUNNY   80  66  62 CALM      29.89F
BRANSON        PTSUNNY   77  66  69 SE7       29.92S

$$
MOZ032>034-039>042-045>050-055>058-069>072-312200-
...CENTRAL MISSOURI...

CITY           SKY/WX    TMP DP  RH WIND       PRES   REMARKS
COLUMBIA       MOSUNNY   80  63  55 SE9       29.89F
JEFFERSON CITY SUNNY     81  62  52 S10       29.87F
ROLLA          MOSUNNY   78  65  63 S8        29.90F
SEDALIA        MOSUNNY   81  67  62 VRB6      29.91S
WHITEMAN AFB   PTSUNNY   77  66  69 SW8       29.89R
WARRENSBURG    CLOUDY    77  63  61 S3        29.90R

$$
MOZ051-052-059>065-312200-
...EAST CENTRAL MISSOURI...

CITY           SKY/WX    TMP DP  RH WIND       PRES   REMARKS
ST LOUIS INTL  PTSUNNY   83  61  47 S10       29.92F
SPIRIT OF STL  PTSUNNY   82  65  56 VRB3      29.89F
ST CHARLES     PTSUNNY   82  63  52 S9        29.89F

$$
MOZ072>076-082>087-097>100-106>115-312200-
...SOUTH CENTRAL AND SOUTHEAST MISSOURI...

CITY           SKY/WX    TMP DP  RH WIND       PRES   REMARKS
CAPE GIRARDEAU MOSUNNY   85  62  46 SW10      29.90F
FARMINGTON     MOSUNNY   80  65  59 S5        29.93F
POPLAR BLUFF   MOSUNNY   82  67  60 S7        29.90F
WEST PLAINS    MOSUNNY   79  63  57 E6        29.92F

$$



USA.gov is the U.S. government's official web portal to all federal, state and local government web resources and services.